OBJECT F, 57429

Orbit data source: Space-Track

You're viewing an Uncataloged Satellite

Recently launched and/or uncataloged satellites may have evolving metadata. Metadata may include but not limited to: Owner, Maufacturer, Bus, Motor, and Mission.

OBJECT F, 57429 is a satellite owned by Yinhe (CN) in SSO that was launched on Sun, 23 Jul 2023 UTC via a CHANG ZHENG 2D launch vehicle from the Taiyaun Space Center, China (TSC). Unknown objects in Earth's orbit typically refer to objects detected orbiting the Earth but have not yet been identified or cataloged. These objects could be anything from previously untracked satellites, spent rocket stages, debris from satellite collisions, or even natural meteoroids temporarily captured by Earth's gravity.

Loading next visibility...
Identifier
57429, 2023-104F
Orbit
SSO
Last TLE update
5 hours ago
Origin
Flag of CNYINHE (CN / PRC)
Manufacturer
Yinhe
Mission
Spacecraft
Bus & Motor
Unknown
Mass
~300 kg wet, ~300 kg dry
Launch date (UTC)
2023-07-23 (2 years ago)
Launch vehicle
CHANG ZHENG 2D
Launch site
Taiyaun Space Center, China (TSC)
Object type
Unknown
Shape & HBR
Unknown
Radar Cross Section
Medium (>0.1 m² and <1 m²)

Expand to show TLE details & history

TLE from 5 hours ago
0 OBJECT F
1 57429U 23104F   25182.21353088  .00010621  00000-0  29108-3 0  9998
2 57429  97.3034 250.4532 0025130 231.1583 128.7419 15.37160117108294
Epoch: 2025-07-01T05:07Z
TLE epoch observation values (Epoch: 2025-07-01T05:07:29.068Z)
Latitude
0.00001°
Longitude
-105.93013°
Altitude
468.402 km
Speed
7.626 km/s
True Right ascension
16h 41m 48s
True Declination
0° 00' 00"
Sunlit
Object was in full shadow at epoch
Visualization orbit readout
Latitude
-18.06646°
Longitude
-103.35651°
Altitude
467.928 km
Speed
7.628 km/s
Apparent Right ascension
13h 54m 55s
Apparent Declination
-43° 38' 12"
Sunlit
Object is in full shadow
Visualization observer readout
Local Sidereal Time
21:22:18
Azimuth
242.048° WSW
Elevation
-40.495°
Doppler factor
1
Orbital elements
Apogee altitude
468.613 km
Perigee altitude
434.288 km
Semi-major axis
6,829.587 km
Eccentricity
0.00251
Inclination
97.3034°
RAAN
250.4532°
Arg. of periapsis
231.1583°
True anomaly
Unknown
Mean anomaly
128.7419°
Eccentric anomaly
Unknown
Mean motion
3.84549 °/min
Orbital period
93.62 mins
BSTAR
0.00029108
Loading maneuver chart data...
Loading SW <> Apogee altitude chart data...
Loading historical data...
Loading historical data...
Loading historical data...
Loading historical data...
Loading historical data...
Loading historical data...
Loading historical data...
Other satellites on launch #104 in the year 2023 (2023-07-23 UTC)

OBJECT F Visibility forecast

Observer location: undefined°, undefined°

Span
Click to sort rows by Start time (UTC) header in descending order
Start Az.
Max El. time (UTC)
Max El. Az.
Max El.
End time (UTC)
End Az.
5 mins2025-07-02 04:41:58.571Z173.876° S2025-07-02 04:43:58.571Z240.508° WSW44.33°2025-07-02 04:46:58.571Z344.741° N
|